This is the latest recevied weather packets stored in our database for station/object KC4JIR. If no packets are shown the sender has not sent any weather packets the latest 10 day(s).
| Time | Temp. | Humidity | Pressure | Rain* | Wind** | Luminosity | Snow |
|---|---|---|---|---|---|---|---|
| 1787781368 | 32.78° C | 67% | 1012 hPa | 0 mm | - | 260 W/m² | - |
| 1787781068 | 32.78° C | 67% | 1011.9 hPa | 0 mm | - | 260 W/m² | - |
| 1787780767 | 32.22° C | 67% | 1012.1 hPa | 0 mm | - | 285 W/m² | - |
| 1787780461 | 32.22° C | 67% | 1012 hPa | 0 mm | - | 285 W/m² | - |
| 1787780158 | 33.33° C | 67% | 1012.2 hPa | 0 mm | - | 318 W/m² | - |
| 1787779552 | 31.11° C | 65% | 1012.4 hPa | 0 mm | - | 386 W/m² | - |
| 1787779246 | 31.11° C | 65% | 1012.2 hPa | 0 mm | - | 386 W/m² | - |
| 1787778941 | 31.11° C | 65% | 1012.4 hPa | 0 mm | - | 386 W/m² | - |
| 1787778637 | 31.67° C | 68% | 1012.3 hPa | 0 mm | - | 390 W/m² | - |
| 1787778332 | 31.67° C | 70% | 1012.3 hPa | 0 mm | - | 396 W/m² | - |
| 1787778028 | 31.67° C | 70% | 1012.4 hPa | 0 mm | - | 420 W/m² | - |
| 1787777722 | 31.67° C | 69% | 1012.4 hPa | 0 mm | - | 399 W/m² | - |
| 1787777419 | 32.78° C | 69% | 1012.3 hPa | 0 mm | - | 465 W/m² | - |
| 1787777119 | 32.78° C | 69% | 1012.5 hPa | 0 mm | - | 465 W/m² | - |
| 1787776817 | 32.78° C | 69% | 1012.6 hPa | 0 mm | - | 465 W/m² | - |
| 1787776516 | 32.22° C | 66% | 1012.7 hPa | 0 mm | - | 478 W/m² | - |
| 1787776215 | 31.67° C | 70% | 1012.7 hPa | 0 mm | - | 520 W/m² | - |
| 1787775909 | 31.67° C | 70% | 1012.7 hPa | 0 mm | - | 520 W/m² | - |
| 1787774394 | 31.11° C | 73% | 1012.7 hPa | 0 mm | - | 514 W/m² | - |
| 1787774090 | 31.11° C | 73% | 1012.8 hPa | 0 mm | - | 514 W/m² | - |
| 1787773788 | 31.11° C | 73% | 1013 hPa | 0 mm | - | 514 W/m² | - |
| 1787773483 | 30.56° C | 73% | 1013.2 hPa | 0 mm | - | 507 W/m² | - |
| 1787773179 | 30.56° C | 72% | 1013.2 hPa | 0 mm | - | 680 W/m² | - |
| 1787772874 | 30.56° C | 72% | 1013.1 hPa | 0 mm | - | 680 W/m² | - |
| 1787772267 | 30.56° C | 73% | 1013.6 hPa | 0 mm | - | 642 W/m² | - |
* Rain latest hour (hover to see other rain measurements)
** Current wind speed in m/s (hover to see current wind gust speed)